Home > Time Zones > World Clock > Weather > Sweden > Lund > Past weeks

Flag for Sweden Weather past 2 weeks in Lund, Sweden

Now
39 °F

Fog.


Feels Like: 30 °F
Forecast: 34 / 38 °F
Wind: 16 mph from Southwest

Location: Malmo / Sturup

Current Time: Jan 28, 2015 at 10:55:15 AM

Latest Report: Jan 28, 2015 at 10:20 AM


Visibility: 2 mi

Pressure: 29.65 "Hg

Humidity: 100%

Dew point: 39 °F

Location of LundLocation

Historic Weather in Lund — Graph

°F

Lund temperature yesterday

Maximum temperature yesterday: 37 °F (at 12:20 AM)
Minimum temperature yesterday: 30 °F (at 11:20 PM)
Average temperature yesterday: 36 °F

Past Weeks' High & Low Weather Summary

 TemperatureHumidityPressure
High46 °F (Jan 13, 1:20 PM)100% (Jan 13, 10:20 AM)30.27 "Hg (Jan 13, 10:20 AM)
Low23 °F (Jan 25, 5:20 AM)75% (Jan 17, 11:20 AM)29.33 "Hg (Jan 15, 6:50 PM)
Average35 °F93%29.86 "Hg
* Reported Jan 13 9:20 AM — Jan 28 9:50 AM, Lund, Weather by CustomWeather, © 2014

Note: Actual official high and low records may vary slightly from our data, if they occured in-between our weather recording intervals... More about our weather records

Advertising

Lund weather history for previous 24 hours

 ConditionsComfort  
Time TempWeatherWind HumidityBarometerVisibility
9:50 AM
Jan 28
37 °FFog.15 mph100%29.65 "Hg2 mi
9:20 AM37 °FFog.17 mph100%29.68 "Hg1 mi
8:50 AM37 °FFog.15 mph100%29.68 "Hg2 mi
8:20 AM37 °FFog.13 mph100%29.71 "Hg1 mi
7:50 AM37 °FFog.13 mph100%29.71 "Hg1 mi
7:20 AM37 °FFog.13 mph100%29.74 "Hg1 mi
6:50 AM36 °FFog.9 mph100%29.74 "Hg0 mi
6:20 AM36 °FFog.7 mph100%29.74 "Hg0 mi
5:50 AM34 °FFog.8 mph100%29.77 "Hg0 mi
5:20 AM34 °FFog.9 mph100%29.77 "Hg0 mi
4:50 AM34 °FFog.10 mph100%29.80 "Hg1 mi
4:20 AM34 °FFog.10 mph100%29.80 "Hg0 mi
3:50 AM34 °FFog.12 mph100%29.83 "Hg0 mi
3:20 AM34 °FFog.6 mph93%29.83 "Hg1 mi
2:50 AM34 °FFog.7 mph93%29.83 "Hg1 mi
2:20 AM30 °FIce fog.8 mph100%29.83 "Hg3 mi
1:50 AM30 °FClear.7 mph100%29.86 "Hg10 mi
1:20 AM28 °FIce fog.5 mph100%29.86 "HgN/A
12:50 AM30 °FClear.7 mph100%29.86 "HgN/A
12:20 AM30 °FIce fog.7 mph100%29.89 "Hg5 mi
11:50 PM
Jan 27
30 °FIce fog.6 mph100%29.89 "Hg3 mi
11:20 PM30 °FIce fog.6 mph100%29.89 "Hg4 mi
10:50 PM34 °FPassing clouds.5 mph93%29.89 "HgN/A
10:20 PM34 °FMostly cloudy.5 mph93%29.92 "HgN/A
9:50 PM34 °FPassing clouds.7 mph93%29.92 "HgN/A
9:20 PM34 °FPassing clouds.10 mph93%29.92 "HgN/A
8:50 PM34 °FPassing clouds.10 mph93%29.92 "HgN/A
8:20 PM34 °FPassing clouds.9 mph93%29.89 "HgN/A
7:50 PM34 °FPassing clouds.9 mph93%29.89 "HgN/A
7:20 PM34 °FPassing clouds.12 mph93%29.92 "HgN/A
6:50 PM34 °FPassing clouds.9 mph93%29.92 "HgN/A
6:20 PM34 °FPassing clouds.13 mph93%29.89 "HgN/A
5:50 PM34 °FPassing clouds.13 mph93%29.89 "HgN/A
5:20 PM34 °FPassing clouds.14 mph93%29.89 "HgN/A
4:50 PM34 °FPassing clouds.12 mph93%29.89 "HgN/A
4:20 PM34 °FPartly sunny.12 mph93%29.86 "HgN/A
3:50 PM36 °FPartly sunny.15 mph87%29.86 "HgN/A
3:20 PM36 °FPartly sunny.14 mph87%29.86 "HgN/A
2:50 PM36 °FPartly sunny.15 mph87%29.86 "HgN/A
2:20 PM36 °FPartly sunny.13 mph93%29.83 "HgN/A
1:50 PM36 °FLow clouds.12 mph93%29.83 "HgN/A
1:20 PM36 °FPartly sunny.13 mph93%29.80 "HgN/A
12:50 PM36 °FPartly sunny.13 mph93%29.80 "HgN/A
12:20 PM37 °FPartly sunny.13 mph93%29.80 "HgN/A
11:50 AM37 °FPartly sunny.18 mph87%29.80 "HgN/A
11:20 AM37 °FDrizzle. Partly sunny.14 mph93%29.80 "Hg6 mi
10:50 AM37 °FDrizzle. Partly sunny.15 mph93%29.77 "Hg6 mi
10:20 AM37 °FDrizzle. Partly sunny.15 mph93%29.77 "Hg6 mi
Weather by CustomWeather, © 2014

See weather overviewHow to use our weather pages